YO8RBY-13 Weather Reports


Display with metric or nautical units.
time (UTC)temp
F
wind
direction
speed
MPH
gust
MPH
rain 1hr
in
rain 24hr
in
rain mn
in
humidity
%
barometer
mb
20260507040354 46 0.0 0.0 0.00 0.00 0.00 10 968.9
20260507035409 45 0.0 0.0 0.00 0.00 0.00 10 968.7
20260507034409 45 0.0 0.0 0.00 0.00 0.00 10 968.5
20260507033354 44 0.0 0.0 0.00 0.00 0.00 10 968.5
20260507032354 44 0.0 0.0 0.00 0.00 0.00 10 968.4
20260507031410 44 0.0 0.0 0.00 0.00 0.00 10 968.3
20260507030353 43 0.0 0.0 0.00 0.00 0.00 10 968.3
20260507025355 43 0.0 0.0 0.00 0.00 0.00 10 968.4
20260507024353 43 0.0 0.0 0.00 0.00 0.00 10 968.5
20260507023354 44 0.0 0.0 0.00 0.00 0.00 10 968.5
20260507022355 44 0.0 0.0 0.00 0.00 0.00 10 968.7
20260507021355 44 0.0 0.0 0.00 0.00 0.00 10 968.9
20260507020354 45 0.0 0.0 0.00 0.00 0.00 10 968.9
20260507015353 45 0.0 0.0 0.00 0.00 0.00 10 969.0
20260507014355 45 0.0 0.0 0.00 0.00 0.00 10 969.1
20260507013355 46 0.0 0.0 0.00 0.00 0.00 10 969.3
20260507012354 47 0.0 0.0 0.00 0.00 0.00 10 969.6
20260507011355 47 0.0 0.0 0.00 0.00 0.00 10 969.5
20260507010356 46 0.0 0.0 0.00 0.00 0.00 10 969.3
20260507005354 46 0.0 0.0 0.00 0.00 0.00 10 969.4
20260507004353 47 0.0 0.0 0.00 0.00 0.00 10 969.5
20260507003354 47 0.0 0.0 0.00 0.00 0.00 10 969.4
20260507002424 47 0.0 0.0 0.00 0.00 0.00 10 969.9
20260507001354 48 0.0 0.0 0.00 0.00 0.00 10 969.9
20260507000353 47 0.0 0.0 0.00 0.00 0.00 10 969.5
20260506235353 47 0.0 0.0 0.00 0.00 0.00 10 969.6
20260506234355 47 0.0 0.0 0.00 0.00 0.00 10 969.3
20260506233354 47 0.0 0.0 0.00 0.00 0.00 10 969.3
20260506232356 47 0.0 0.0 0.00 0.00 0.00 10 969.4
20260506231354 47 0.0 0.0 0.00 0.00 0.00 10 969.6
20260506230354 47 0.0 0.0 0.00 0.00 0.00 10 970.0
20260506225353 49 0.0 0.0 0.00 0.00 0.00 10 970.2
20260506224355 48 0.0 0.0 0.00 0.00 0.00 10 969.9
20260506223414 48 0.0 0.0 0.00 0.00 0.00 10 970.2
20260506222355 49 0.0 0.0 0.00 0.00 0.00 10 970.3
20260506221353 50 0.0 0.0 0.00 0.00 0.00 10 970.3
20260506220354 49 0.0 0.0 0.00 0.00 0.00 10 970.3
20260506215354 50 0.0 0.0 0.00 0.00 0.00 10 970.5
20260506214353 50 0.0 0.0 0.00 0.00 0.00 10 970.7
20260506213354 51 0.0 0.0 0.00 0.00 0.00 10 970.7
20260506212354 51 0.0 0.0 0.00 0.00 0.00 10 970.7
20260506211353 52 0.0 0.0 0.00 0.00 0.00 10 971.1
20260506210354 53 0.0 0.0 0.00 0.00 0.00 10 971.4
20260506205409 53 0.0 0.0 0.00 0.00 0.00 10 971.3
20260506204353 52 0.0 0.0 0.00 0.00 0.00 10 971.2
20260506203353 53 0.0 0.0 0.00 0.00 0.00 10 971.2
20260506202354 54 0.0 0.0 0.00 0.00 0.00 10 971.4
20260506201353 55 0.0 0.0 0.00 0.00 0.00 10 971.5
20260506200357 55 0.0 0.0 0.00 0.00 0.00 10 971.5
20260506195353 56 0.0 0.0 0.00 0.00 0.00 10 971.5
20260506194441 56 0.0 0.0 0.00 0.00 0.00 10 971.5
20260506193356 56 0.0 0.0 0.00 0.00 0.00 10 971.6
20260506192353 56 0.0 0.0 0.00 0.00 0.00 10 971.5
20260506191355 56 0.0 0.0 0.00 0.00 0.00 10 971.4
20260506190353 56 0.0 0.0 0.00 0.00 0.00 10 971.3
20260506185356 56 0.0 0.0 0.00 0.00 0.00 10 971.3
20260506184354 57 0.0 0.0 0.00 0.00 0.00 10 971.3
20260506183410 58 0.0 0.0 0.00 0.00 0.00 10 971.2
20260506182439 58 0.0 0.0 0.00 0.00 0.00 10 971.1
20260506181353 59 0.0 0.0 0.00 0.00 0.00 10 971.0
20260506180425 61 0.0 0.0 0.00 0.00 0.00 10 970.8
20260506175353 62 0.0 0.0 0.00 0.00 0.00 10 970.7
20260506174354 63 0.0 0.0 0.00 0.00 0.00 99 970.6
20260506173355 64 0.0 0.0 0.00 0.00 0.00 95 970.6
20260506172353 65 0.0 0.0 0.00 0.00 0.00 92 970.4
20260506171353 66 0.0 0.0 0.00 0.00 0.00 83 970.3
20260506170353 67 0.0 0.0 0.00 0.00 0.00 76 970.3
20260506165353 67 0.0 0.0 0.00 0.00 0.00 74 970.2
20260506164353 68 0.0 0.0 0.00 0.00 0.00 60 970.2
20260506163353 70 0.0 0.0 0.00 0.00 0.00 49 970.1
20260506162410 71 0.0 0.0 0.00 0.00 0.00 47 970.1
20260506161354 71 0.0 0.0 0.00 0.00 0.00 44 970.0
20260506160353 72 0.0 0.0 0.00 0.00 0.00 44 970.0
20260506155355 72 0.0 0.0 0.00 0.00 0.00 46 970.0
20260506154356 73 0.0 0.0 0.00 0.00 0.00 43 970.0
20260506153356 74 0.0 0.0 0.00 0.00 0.00 40 969.9
20260506152409 74 0.0 0.0 0.00 0.00 0.00 41 970.0
20260506151353 75 0.0 0.0 0.00 0.00 0.00 40 970.1
20260506150353 76 0.0 0.0 0.00 0.00 0.00 39 970.1
20260506145409 76 0.0 0.0 0.00 0.00 0.00 37 970.2
20260506144353 76 0.0 0.0 0.00 0.00 0.00 38 970.2
20260506143353 76 0.0 0.0 0.00 0.00 0.00 36 970.3
20260506142354 76 0.0 0.0 0.00 0.00 0.00 35 970.3
20260506141354 77 0.0 0.0 0.00 0.00 0.00 34 970.3
20260506140353 77 0.0 0.0 0.00 0.00 0.00 34 970.2
20260506135354 77 0.0 0.0 0.00 0.00 0.00 34 970.1
20260506134353 77 0.0 0.0 0.00 0.00 0.00 34 970.2
20260506133353 78 0.0 0.0 0.00 0.00 0.00 33 970.2
20260506132354 77 0.0 0.0 0.00 0.00 0.00 33 970.1
20260506131409 78 0.0 0.0 0.00 0.00 0.00 36 970.2
20260506130353 78 0.0 0.0 0.00 0.00 0.00 33 970.2
20260506125354 78 0.0 0.0 0.00 0.00 0.00 32 970.2
20260506124408 78 0.0 0.0 0.00 0.00 0.00 32 970.3
20260506123408 79 0.0 0.0 0.00 0.00 0.00 31 970.4
20260506122353 79 0.0 0.0 0.00 0.00 0.00 33 970.4
20260506121353 78 0.0 0.0 0.00 0.00 0.00 32 970.4
20260506120353 78 0.0 0.0 0.00 0.00 0.00 31 970.6
20260506115353 79 0.0 0.0 0.00 0.00 0.00 28 970.7
20260506114353 79 0.0 0.0 0.00 0.00 0.00 30 970.8
20260506113353 78 0.0 0.0 0.00 0.00 0.00 29 970.7
20260506112353 78 0.0 0.0 0.00 0.00 0.00 30 970.8
20260506111411 79 0.0 0.0 0.00 0.00 0.00 29 970.9
20260506110353 79 0.0 0.0 0.00 0.00 0.00 28 971.0
20260506105408 78 0.0 0.0 0.00 0.00 0.00 32 971.1
20260506104409 77 0.0 0.0 0.00 0.00 0.00 32 971.2
20260506103355 78 0.0 0.0 0.00 0.00 0.00 35 971.2
20260506102353 77 0.0 0.0 0.00 0.00 0.00 35 971.3
20260506101354 76 0.0 0.0 0.00 0.00 0.00 39 971.5
20260506100354 76 0.0 0.0 0.00 0.00 0.00 43 971.5
20260506095411 75 0.0 0.0 0.00 0.00 0.00 50 971.7
20260506094353 75 0.0 0.0 0.00 0.00 0.00 61 971.7
20260506093408 74 0.0 0.0 0.00 0.00 0.00 65 971.8
20260506092408 74 0.0 0.0 0.00 0.00 0.00 68 971.9
20260506091353 74 0.0 0.0 0.00 0.00 0.00 62 972.0
20260506090354 73 0.0 0.0 0.00 0.00 0.00 61 971.9
20260506085353 74 0.0 0.0 0.00 0.00 0.00 53 971.9
20260506084425 73 0.0 0.0 0.00 0.00 0.00 53 971.9
20260506083353 73 0.0 0.0 0.00 0.00 0.00 59 971.9
20260506082410 71 0.0 0.0 0.00 0.00 0.00 63 971.8
20260506081408 70 0.0 0.0 0.00 0.00 0.00 72 971.9
20260506080424 69 0.0 0.0 0.00 0.00 0.00 66 971.9
20260506073412 70 0.0 0.0 0.00 0.00 0.00 53 971.8
20260506072354 70 0.0 0.0 0.00 0.00 0.00 54 971.7
20260506071353 70 0.0 0.0 0.00 0.00 0.00 49 971.7
20260506070353 70 0.0 0.0 0.00 0.00 0.00 50 971.7
20260506062353 67 0.0 0.0 0.00 0.00 0.00 46 971.8
20260506061353 66 0.0 0.0 0.00 0.00 0.00 48 971.7
20260506060408 65 0.0 0.0 0.00 0.00 0.00 47 971.7
20260506051408 62 0.0 0.0 0.00 0.00 0.00 61 971.7
20260506050354 62 0.0 0.0 0.00 0.00 0.00 61 971.8
20260506044354 60 0.0 0.0 0.00 0.00 0.00 71 971.7
20260506043408 60 0.0 0.0 0.00 0.00 0.00 76 971.7
20260506042353 59 0.0 0.0 0.00 0.00 0.00 83 971.7
20260506041408 58 0.0 0.0 0.00 0.00 0.00 89 971.7